SCP
0 0 0 0 0 0 0 0 0 0 0 0 0 0 0 0 0 0 0 0 0 0 0 0 0 0 0 0 0 0 0 0 0 0 0 0 0 0 0 0 0 0 0
0 0 0 0 0 0 0 0 0 0 0 0 0 0 0 0 0 0 0 0 0 0 0 0 0 0 0 0 0 0 0 0 0 0 0 0 0 0 0 0 0 0 0
0 0 0 0 0 0 0 0 0 0 0 0 0 0 0 0 0 0 0 0 0 0 0 0 0 0 0 0 0 0 0 0 0 0 0 0 0 0 0 0 0 0 0
0 0 0 0 0 0 0 0 0 0 0 0 0 0 0 0 0 0 0 0 0 0 0 0 0 0 0 0 0 0 0 0 0 0 0 0 0 0 0 0 0 0 0
0 0 0 0 0 0 0 0 0 0 0 0 0 0 0 0 0 0 0 0 0 0 0 0 0 0 0 0 0 0 0 0 0 0 0 0 0 0 0 0 0 0 0
0 0 0 0 0 0 0 0 0 0 0 0 0 0 0 0 0 0 0 0 0 0 0 0 0 0 0 0 0 0 0 0 0 0 0 0 0 0 0 0 0 0 0
0 0 0 0 0 0 0 0 0 0 0 0 0 0 0 0 0 0 0 0 0 0 0 0 0 0 0 0 0 0 0 0 0 0 0 0 0 0 0 0 0 0 0
0 0 0 0 0 0 0 0 0 0 0 0 0 0 0 0 0 0 0 0 0 0 0 0 0 0 0 0 0 0 0 0 0 0 0 0 0 0 0 0 0 0 0
0 0 0 0 0 0 0 0 0 0 0 0 0 0 0 0 0 0 0 0 0 0 0 0 0 0 0 0 0 0 0 0 0 0 0 0 0 0 0 0 0 0 0
0 0 0 0 0 0 0 0 0 0 0 0 0 0 0 0 0 0 0 0 0 0 0 0 0 0 0 0 0 0 0 0 0 0 0 0 0 0 0 0 0 0 0
0 0 0 0 0 0 0 0 0 0 0 0 0 0 0 0 0 0 0 0 0 0 0 0 0 0 0 0 0 0 0 0 0 0 0 0 0 0 0 0 0 0 0
0 0 0 0 0 0 0 0 0 0 0 0 0 0 0 0 0 0 0 0 0 0 0 0 0 0 0 0 0 0 0 0 0 0 0 0 0 0 0 0 0 0 0
0 0 0 0 0 0 0 0 0 0 0 0 0 0 0 0 0 0 0 0 0 0 0 0 0 0 0 0 0 0 0 0 0 0 0 0 0 0 0 0 0 0 0
0 0 0 0 0 0 0 0 0 0 0 0 0 0 0 0 0 0 0 0 0 0 0 0 0 0 0 0 0 0 0 0 0 0 0 0 0 0 0 0 0 0 0
0 0 0 0 0 0 0 0 0 0 0 0 0 0 0 0 0 0 0 0 0 0 0 0 0 0 0 0 0 0 0 0 0 0 0 0 0 0 0 0 0 0 0
0 0 0 0 0 0 0 0 0 0 0 0 0 0 0 0 0 0 0 0 0 0 0 0 0 0 0 0 0 0 0 0 0 0 0 0 0 0 0 0 0 0 0
0 0 0 0 0 0 0 0 0 0 0 0 0 0 0 0 0 0 0 0 0 0 0 0 0 0 0 0 0 0 0 0 0 0 0 0 0 0 0 0 0 0 0
0 0 0 0 0 0 0 0 0 0 0 0 0 0 0 0 0 0 0 0 0 0 0 0 0 0 0 0 0 0 0 0 0 0 0 0 0 0 0 0 0 0 0
0 0 0 0 0 0 0 0 0 0 0 0 0 0 0 0 0 0 0 0 0 0 0 0 0 0 0 0 0 0 0 0 0 0 0 0 0 0 0 0 0 0 0
0 0 0 0 0 0 0 0 0 0 0 0 0 0 0 0 0 0 0 0 0 0 0 0 0 0 0 0 0 0 0 0 0 0 0 0 0 0 0 0 0 0 0
0 0 0 0 0 0 0 0 0 0 0 0 0 0 0 0 0 0 0 0 0 0 0 0 0 0 0 0 0 0 0 0 0 0 0 0 0 0 0 0 0 0 0
0 0 0 0 0 0 0 0 0 0 0 0 0 0 0 0 0 0 0 0 0 0 0 0 0 0 0 0 0 0 0 0 0 0 0 0 0 0 0 0 0 0 0
0 0 0 0 0 0 0 0 0 0 0 0 0 0 0 0 0 0 0 0 0 0 0 0 0 0 0 0 0 0 0 0 0 0 0 0 0 0 0 0 0 0 0
0 0 0 0 0 0 0 0 0 0 0 0 0 0 0 0 0 0 0 0 0 0 0 0 0 0 0 0 0 0 0 0 0 0 0 0 0 0 0 0 0 0 0
0 0 0 0 0 0 0 0 0 0 0 0 0 0 0 0 0 0 0 0 0 0 0 0 0 0 0 0 0 0 0 0 0 0 0 0 0 0 0 0 0 0 0
0 0 0 0 0 0 0 0 0 0 0 0 0 0 0 0 0 0 0 0 0 0 0 0 0 0 0 0 0 0 0 0 0 0 0 0 0 0 0 0 0 0 0
Wind_Speed
3 3 3 3 3 3 4 5 5 6 7 8 8 8 9 9 9 8 6 9 13 15 16 17 17 17 17 16 16 16 16 15 15 15 14 14 14 13 13 13 12 11 11
3 4 4 3 4 4 4 5 6 6 6 6 8 8 9 9 9 9 8 8 12 14 16 17 17 17 17 17 17 17 16 16 17 16 16 16 15 15 15 14 14 13 13
4 4 4 4 4 4 5 5 6 5 6 6 8 9 8 9 9 9 9 7 7 11 15 16 17 17 17 17 17 17 17 16 17 17 17 17 16 16 16 16 15 15 15
5 4 3 4 5 4 4 4 5 5 5 6 6 7 7 7 10 9 8 7 7 6 9 13 14 14 15 16 16 17 17 16 16 16 17 17 17 17 17 17 17 16 16
5 4 3 4 5 4 4 4 5 5 6 6 6 7 7 7 8 7 8 8 7 7 6 7 10 11 11 14 16 16 17 16 16 16 17 17 17 18 18 19 18 18 18
6 4 3 4 5 4 4 4 5 5 5 5 6 6 6 6 6 6 6 5 5 6 6 6 5 6 9 11 13 14 15 15 14 15 16 17 17 18 18 19 19 19 19
6 5 4 4 4 4 5 5 5 6 4 4 5 5 6 6 5 4 4 4 4 5 5 5 5 5 4 7 8 10 12 13 13 13 14 15 17 18 18 19 19 19 19
6 5 5 4 4 4 5 5 5 4 4 3 3 4 4 3 2 4 3 3 4 3 4 4 4 5 4 3 2 5 8 11 13 15 15 15 15 16 17 18 19 19 19
6 6 6 5 5 4 4 5 5 5 4 3 2 3 4 3 3 2 3 2 3 3 3 3 3 3 3 3 3 4 6 9 11 13 14 14 16 16 17 18 18 18 18
6 6 6 5 5 4 5 5 5 4 4 3 2 3 4 4 4 3 3 3 4 4 4 3 3 3 3 3 3 7 8 8 10 12 14 14 14 15 16 16 17 17 17
5 6 6 5 5 4 5 6 5 4 3 3 3 3 3 4 5 5 5 4 4 3 3 3 2 2 3 3 3 7 9 9 11 12 13 14 14 14 14 14 14 15 16
4 6 6 5 5 5 5 5 5 5 4 4 3 3 3 2 3 4 5 5 5 4 4 2 2 2 3 3 5 10 10 10 12 13 13 14 13 13 13 13 13 13 14
3 6 5 5 5 5 5 5 4 4 4 4 3 3 3 3 3 3 4 5 5 4 3 2 3 3 4 5 5 11 8 10 12 13 13 13 13 12 11 12 12 12 13
3 5 5 5 5 5 5 4 4 4 4 4 5 4 3 3 4 3 3 4 5 4 3 2 3 5 5 5 8 11 8 11 12 13 13 13 13 13 11 12 12 12 12
2 4 4 4 5 5 5 5 4 5 4 4 4 4 3 3 3 4 3 3 4 4 3 3 3 5 6 6 9 8 8 11 13 13 12 12 13 13 12 12 11 11 11
2 3 3 4 4 5 5 4 4 4 5 5 4 4 4 3 3 3 3 3 3 4 4 3 4 6 7 6 9 8 8 11 11 12 12 13 13 13 12 12 12 11 11
1 2 2 3 3 4 4 4 4 4 4 4 4 4 5 4 3 3 3 3 3 3 5 5 4 6 7 8 8 8 7 7 7 11 13 13 13 13 13 12 12 11 12
1 1 2 2 2 3 3 3 3 3 4 4 4 4 4 3 4 3 3 3 3 3 4 6 6 6 7 8 9 9 7 7 7 11 13 14 14 13 13 13 13 13 12
1 1 1 1 1 2 2 2 2 2 2 3 3 3 4 4 4 3 3 3 3 3 3 4 5 5 6 6 9 8 9 7 8 9 11 12 13 13 13 14 14 13 12
2 2 1 1 1 1 1 1 1 1 1 2 2 2 3 3 4 4 3 4 4 4 4 4 5 5 5 7 7 7 8 7 8 8 9 10 11 13 13 13 14 14 13
3 3 2 2 2 2 2 2 2 2 2 2 2 2 2 4 5 4 4 4 4 4 4 4 5 5 6 6 7 7 8 9 9 6 7 8 8 8 9 10 11 13 14
4 3 3 3 3 2 2 3 3 3 2 2 3 2 2 3 3 5 5 6 6 5 5 5 5 6 7 7 7 7 8 9 7 6 9 10 8 8 7 7 11 15 16
5 5 4 4 4 3 4 4 5 4 3 3 3 3 3 3 4 4 5 5 5 6 7 7 7 7 8 8 9 9 9 9 9 9 10 10 8 9 8 8 14 15 16
5 5 5 5 4 4 5 5 5 5 4 4 4 4 4 4 4 5 6 6 6 5 6 6 6 7 8 8 8 9 10 11 10 7 7 8 8 9 9 9 12 14 16
6 5 5 5 5 5 5 6 6 4 4 4 4 4 5 5 6 7 7 7 7 6 5 7 9 10 12 12 10 7 7 8 8 7 6 6 8 9 9 8 8 12 14
6 5 5 5 6 6 6 7 7 4 5 4 4 4 5 6 7 8 7 7 7 7 7 7 8 8 8 8 9 7 6 7 7 7 4 5 7 8 8 6 7 8 10
Wind_Direction
305 300 294 295 290 288 282 279 274 274 269 262 257 256 254 250 247 245 239 212 224 238 243 246 245 242 239 239 237 235 233 231 231 233 233 232 232 234 236 235 235 235 236
314 305 301 300 296 293 288 282 281 279 275 270 265 260 257 256 253 250 252 231 218 230 240 245 247 246 244 242 241 237 235 234 233 234 234 234 234 234 236 236 236 236 236
322 312 305 302 301 296 290 285 282 281 278 275 270 267 263 259 257 254 253 255 240 224 231 242 248 249 248 247 245 241 238 235 234 235 236 235 235 234 235 236 236 237 237
334 320 311 307 307 301 293 288 287 280 275 274 273 268 264 261 259 256 254 251 252 247 229 231 243 249 252 252 251 248 245 240 237 237 237 238 236 235 235 236 236 236 237
342 331 318 314 312 304 298 294 290 286 281 278 276 271 267 263 262 259 256 254 253 254 253 228 227 241 253 258 258 257 254 249 243 240 240 240 239 238 237 237 236 236 237
351 341 327 324 319 308 304 301 293 291 287 288 280 274 271 267 261 258 259 258 259 257 256 259 247 239 241 256 263 263 261 259 256 250 245 242 240 239 238 239 238 238 238
357 349 339 332 328 316 313 308 298 290 287 296 284 282 274 265 262 264 263 264 265 269 267 264 261 262 253 246 260 268 268 267 266 263 257 250 243 241 240 240 240 240 240
3 355 351 341 337 323 321 320 314 298 288 292 288 288 282 268 271 275 268 272 279 278 276 275 274 270 274 274 299 290 289 284 278 271 264 259 254 246 243 241 240 239 240
3 359 354 348 341 337 330 324 317 305 298 295 288 286 287 283 308 278 282 276 293 292 286 292 297 303 304 307 310 328 315 300 293 290 280 273 263 256 251 247 244 241 239
5 2 357 353 349 342 337 331 331 314 302 299 303 297 292 299 289 288 279 297 312 301 305 317 322 330 328 318 342 350 347 329 309 301 293 284 278 271 264 255 250 247 244
8 6 359 356 355 348 344 339 335 335 324 315 306 301 291 289 290 283 289 300 305 308 316 323 329 337 337 336 341 352 349 340 326 317 312 302 290 285 276 265 260 257 252
2 5 359 0 359 355 350 345 343 346 344 338 329 321 308 299 298 290 287 301 297 305 310 325 336 354 354 350 1 360 351 344 332 324 319 315 305 296 290 282 272 270 261
354 355 356 358 1 358 355 353 356 358 359 357 353 344 341 338 318 304 292 297 297 298 304 333 9 15 14 6 4 355 346 344 335 325 322 322 321 310 303 296 285 280 274
349 350 353 360 4 4 3 3 4 7 9 10 9 3 355 353 346 336 319 306 296 290 289 318 7 13 8 359 2 351 346 348 342 334 333 334 333 331 320 307 295 287 280
344 354 358 2 9 12 10 9 14 13 15 20 17 13 10 1 355 348 339 324 305 294 294 332 345 1 353 349 352 340 339 344 338 337 335 334 330 327 325 317 305 293 287
352 350 360 6 12 16 16 20 20 16 22 24 16 20 21 8 5 6 357 346 329 304 292 320 328 338 343 340 343 335 333 333 331 337 335 330 327 325 320 317 311 301 295
339 344 357 4 11 15 17 26 28 22 26 25 21 24 24 15 9 9 4 357 345 322 294 303 317 328 330 336 334 332 328 329 327 335 333 331 329 326 320 318 315 312 306
306 327 345 357 9 13 15 20 23 22 22 19 15 14 11 6 7 4 358 354 344 335 309 304 316 328 330 330 329 329 331 328 328 333 333 330 328 326 327 323 318 312 307
261 284 312 329 343 355 1 6 12 13 14 10 3 358 357 354 355 354 348 344 337 331 319 302 309 317 317 325 325 325 327 326 326 326 325 327 328 328 324 325 319 315 313
237 255 272 284 296 312 316 323 338 333 343 354 353 347 345 342 338 335 331 333 325 318 312 306 306 311 315 322 324 327 326 328 324 322 325 327 326 324 323 326 326 322 316
227 239 248 257 265 275 279 289 293 296 307 318 326 331 342 344 339 329 325 325 320 313 312 310 309 313 318 326 328 326 319 321 318 321 324 323 321 317 319 320 320 326 325
222 227 237 248 254 250 267 275 279 283 285 293 302 308 315 309 317 317 317 319 317 311 311 307 306 307 313 318 318 318 317 317 315 328 321 313 313 309 311 313 322 324 323
219 225 230 237 245 246 254 264 264 273 274 282 289 294 296 301 303 302 303 296 296 297 296 297 296 300 308 313 313 310 308 306 300 309 309 301 307 304 307 308 313 315 318
223 227 230 235 245 249 250 260 261 261 264 267 272 279 285 292 299 303 300 296 294 293 293 290 290 296 302 307 304 300 300 298 293 292 299 293 303 303 305 300 305 310 312
223 226 230 235 242 249 246 254 259 261 260 266 268 274 280 285 294 294 292 292 292 291 286 283 286 289 293 295 299 299 300 301 300 302 304 294 302 307 301 295 302 310 311
224 224 230 235 241 249 250 251 253 258 260 265 265 265 265 277 290 294 292 291 293 299 301 294 286 285 287 289 291 289 293 294 297 298 310 306 304 316 305 295 306 312 310